Weather in Lobanovo

Russia / Kurgan Oblast     55°51′34″N   62°26′02″E
temp.,
°C
wind,
m/s
gust,
m/s
humid.,
%
clouds,
%
prec.,
mm/h
press.,
hPa
HPBL,
m
18 august, thu
thu1823:00+14ne3747100 0.0 1022224
02:00+10nne33652 0.0 102335
05:00+6nne37837 0.0 1024131
08:00+10nne58651 0.0 1025473
11:00+14nne564267 0.0 10251650
14:00+16nne563679 0.0 10252254
17:00+15nne6642100 0.0 10262112
20:00+12nne4651100 0.0 1027551
19 august, fri
fri1923:00+10nne4761100 0.0 1028410
02:00+7nne358097 0.0 1029155
05:00+9n2473100 0.0 1030241
08:00+11n3564100 0.0 1031485
11:00+15n465198 0.0 10311373
14:00+18nnw464787 0.0 10291614
17:00+21nnw584117 0.0 10272052
20:00+17nw485382 0.0 1026142
20 august, sat
sat2023:00+13nw410655 0.0 1026168
02:00+12nw4973100 0.0 1026170
05:00+12nw497767 0.0 1025172
08:00+17nnw58705 0.0 1025315
11:00+23nnw685317 0.0 1024995
14:00+26nnw7943100 0.0 10222428
17:00+19ne81381100 1.0 1023563
20:00+16ne2296100 1.3 102447
21 august, sun
sun2123:00+15ene119797 1.6 102525
02:00+14e2297100 0.0 102561
05:00+14n1196100 0.1 102615
08:00+16nne358975 0.0 1027288
11:00+19nne56628 0.1 10271117
14:00+19ne555516 0.1 10271454
17:00+21nne45405 0.1 10261874
20:00+16nne3557100 0.0 102766
22 august, mon
mon2223:00+12e367718 0.0 1028108
02:00+10e228397 0.0 102915
05:00+9nne228750 0.0 102910
08:00+13nne23675 0.0 1030240
11:00+19ne34465 0.0 10301234
14:00+22ne34333 0.0 10301710
17:00+22ne44304 0.0 10291742
20:00+16e334776 0.0 103019